Regional Weather Roundup
Issued by NWS Kansas City/Pleasant Hill, MO

Home | Current Version | Previous Version | Graphics & Text | Print | Product List | Glossary Off
Versions: 1 2 3 4 5 6 7 8 9 10 11 12 13 14 15 16 17 18 19 20 21 22 23 24 25 26 27

000
ASUS43 KEAX 270610
RWREAX

WEATHER ROUNDUP FOR EASTERN KANSAS AND NORTHWEST MISSOURI
NATIONAL WEATHER SERVICE KANSAS CITY/PLEASANT HILL MO
1200 AM CST MON FEB 27 2017

KSZ040-057-103>105-MOZ028-029-037-043-270700-
...KANSAS CITY METROPOLITAN AREA...

CITY           SKY/WX    TMP DP  RH WIND       PRES   REMARKS
K.C. INTL      CLEAR     30  30 100 S9        30.02S WCI  22
6HR MIN TEMP:  30; 6HR MAX TEMP:  43;

K.C. DOWNTOWN  PTCLDY    39  35  86 CALM      30.04S
6HR MIN TEMP:  37; 6HR MAX TEMP:  48;

LEES SUMMIT    CLEAR     36  35  96 S3        30.03F
6HR MIN TEMP:  36; 6HR MAX TEMP:  45;

OLATHE - IXD   CLEAR     34  32  92 SE7       30.02F WCI  28
6HR MIN TEMP:  30; 6HR MAX TEMP:  46;

OLATHE - OJC   CLEAR     31  31 100 S7        30.02F WCI  24
6HR MIN TEMP:  31; 6HR MAX TEMP:  45;

LAWRENCE       PTCLDY    31  31 100 E6        30.03F WCI  25

$$

MOZ001>008-011>017-020>025-030>033-038>040-044>046-053-054-270700-
...NORTHERN AND CENTRAL MISSOURI...

CITY           SKY/WX    TMP DP  RH WIND       PRES   REMARKS
ST. JOSEPH     CLEAR     32  27  81 CALM      30.03S
6HR MIN TEMP:  28; 6HR MAX TEMP:  47;

MOSBY          CLEAR     32  32 100 CALM      30.05S
WARRENSBURG    FOG       32  32 100 CALM      30.04S VSB 1/2
WHITEMAN AFB   CLEAR     32  32 100 CALM      30.03F
6HR MIN TEMP:  32; 6HR MAX TEMP:  41;

CLINTON        PTCLDY    34  34 100 CALM      30.04F FOG
SEDALIA        CLEAR     35  33  92 CALM      30.05F
6HR MIN TEMP:  33; 6HR MAX TEMP:  42;

WARSAW         NOT AVBL
CHILLICOTHE      N/A     35  32  88 SW3       30.06R
6HR MIN TEMP:  34; 6HR MAX TEMP:  47;

KIRKSVILLE     CLEAR     31  30  96 S6        30.05F WCI  25
6HR MIN TEMP:  31; 6HR MAX TEMP:  43;


$$

MOZ041-047>049-056>058-063>065-088>090-097-270700-
...EASTERN AND SOUTHERN MISSOURI...

CITY           SKY/WX    TMP DP  RH WIND       PRES   REMARKS
ST. LOUIS INTL CLOUDY    43  35  73 SE6       30.11F
6HR MIN TEMP:  43; 6HR MAX TEMP:  44;

SPIRIT OF STL  CLOUDY    41  36  82 CALM      30.10F
COLUMBIA       MOCLDY    38  35  89 SE7       30.05F WCI  33
JEFFERSON CITY CLOUDY    39  35  86 E3        30.08F
ROLLA          CLOUDY    37  35  92 SE9       30.04F WCI  30
OSAGE BEACH    PTCLDY    37  35  92 E3        30.06F
SPRINGFIELD    PTCLDY    42  27  55 SE10      30.01F
BRANSON        CLOUDY    41  28  60 CALM      30.03F
JOPLIN         CLEAR     34  32  92 CALM      30.02S
WEST PLAINS    CLOUDY    45  25  45 E5        30.06S

$$

IAZ060-094-KSZ022-034>040-054-083-096-NEZ052-066-093-270700-
...KANSAS...SOUTHEAST NEBRASKA AND IOWA...

CITY           SKY/WX    TMP DP  RH WIND       PRES   REMARKS
TOPEKA         CLEAR     32  29  88 CALM      30.02F
6HR MIN TEMP:  32; 6HR MAX TEMP:  51;

MANHATTAN      CLEAR     27  21  78 CALM      30.00F
EMPORIA        CLEAR     31  27  85 S5        30.00F WCI  26
CHANUTE        CLEAR     30  28  92 CALM      30.01F FOG
WICHITA        CLEAR     36  26  67 E6        29.96F WCI  31
OMAHA          CLEAR     30  21  69 S6        30.01S WCI  24
LINCOLN        CLEAR     22  20  92 N3        30.01S
FALLS CITY     CLEAR     32  21  64 CALM      30.00F
LAMONI         PTCLDY    34  20  56 CALM      30.01S
DES MOINES     MOCLDY    32  21  64 SE6       30.03S WCI  26

$$





USA.gov is the U.S. government's official web portal to all federal, state and local government web resources and services.